TEVEL2-5

Last updated on Sun Jun 21 2026 00:03:20 GMT+0000 (Coordinated Universal Time)

1 63214U 25052E 26171.26760575 .00015978 00000+0 47945-3 0 9996 2 63214 97.3892 67.6107 0004895 98.9294 261.2503 15.34527610 70583
UTC large
Height (km)
Speed (km/s)
/
Latitude / Longitude
Inclination (degrees)
Orbital Period (minutes)
Azimuth
Elevation
Range (km)
Doppler Factor

Next 0 passes for location: London (51.5072 / 0.1276)

No passes found over London.
TEVEL2-5